Location: Caltech
(34.1382°N, 118.1253°W)
Time: 22:45:42
(UTC-07:00)

AO-27 - Visible Passes

Search period start: 31 July 2015 00:00
Search period end: 10 August 2015 00:00
Orbit: 786 x 798 km, 98.7° (Epoch: 31 July)

Date Brightness Start Highest point End Pass type
(mag) Time Alt. Az. Time Alt. Az. Time Alt. Az.
31 Jul 10.3 02:00:57 10° E 02:01:28 10° E 02:01:28 10° E visible
31 Jul 7.5 03:36:40 10° N 03:41:52 72° WNW 03:42:14 68° WSW visible
01 Aug 8.0 03:07:48 10° NNE 03:12:52 58° E 03:12:52 58° E visible
01 Aug 9.5 04:49:06 10° NNW 04:52:00 15° WNW 04:53:38 13° W visible
02 Aug 9.1 02:39:23 10° NE 02:43:30 29° E 02:43:30 29° E visible
02 Aug 8.7 04:18:54 10° NNW 04:23:18 28° WNW 04:24:15 26° W visible
03 Aug 10.0 02:11:53 10° ENE 02:14:08 15° E 02:14:08 15° E visible
03 Aug 7.8 03:49:27 10° N 03:54:30 53° WNW 03:54:53 52° W visible
04 Aug 7.6 03:20:25 10° NNE 03:25:31 78° E 03:25:31 78° E visible
04 Aug 9.7 05:03:09 10° NW 05:04:34 11° WNW 05:05:38 10° WNW visible
05 Aug 8.7 02:51:48 10° NNE 02:56:09 38° E 02:56:09 38° E visible
05 Aug 9.0 04:32:00 10° NNW 04:35:54 21° WNW 04:36:55 20° W visible
06 Aug 9.7 02:23:46 10° NE 02:26:47 19° E 02:26:47 19° E visible
06 Aug 8.2 04:02:19 10° N 04:07:08 40° WNW 04:07:32 39° W visible
07 Aug 7.5 03:33:06 10° N 03:38:10 78° NW 03:38:10 78° NW visible
08 Aug 8.3 03:04:18 10° NNE 03:08:48 50° ENE 03:08:48 50° ENE visible
08 Aug 9.3 04:45:18 10° NNW 04:48:29 16° WNW 04:49:34 15° W visible
09 Aug 9.4 02:35:57 10° NE 02:39:26 25° E 02:39:26 25° E visible
09 Aug 8.6 04:15:15 10° N 04:19:46 30° WNW 04:20:11 30° W visible
